Location: Newark
(47.3004°N, 2.1933°W)
Time: 17:39:58
(UTC+00:00)

N. Korean satellite - Visible Passes

Search period start: 23 October 2019 00:00
Search period end: 02 November 2019 00:00
Orbit: 455 x 508 km, 97.2° (Epoch: 22 October)

Date Brightness Start Highest point End Pass type
(mag) Time Alt. Az. Time Alt. Az. Time Alt. Az.
23 Oct 10.1 05:07:20 10° NE 05:09:35 15° E 05:11:49 10° SE visible
24 Oct 10.4 18:28:55 10° WSW 18:29:51 11° W 18:30:46 10° WNW visible
25 Oct 7.9 05:49:03 10° NNE 05:52:35 46° E 05:56:09 10° S visible
25 Oct 9.5 18:01:37 10° SW 18:04:18 21° W 18:07:01 10° NW visible
26 Oct 9.3 05:24:09 10° NE 05:27:10 24° E 05:30:12 10° SSE visible
26 Oct 8.1 17:35:34 10° S 17:38:50 41° W 17:42:11 10° NNW visible
27 Oct 10.3 04:59:54 10° ENE 05:01:39 13° E 05:03:24 10° ESE visible
28 Oct 6.9 06:06:22 10° NNE 06:10:04 77° ESE 06:13:46 10° S visible
28 Oct 10.1 18:20:04 10° WSW 18:21:52 13° W 18:23:40 10° WNW visible
29 Oct 8.4 05:41:14 10° NNE 05:44:41 38° E 05:48:10 10° SSE visible
29 Oct 9.1 17:53:23 10° SSW 17:56:19 26° W 17:59:20 10° NW visible
30 Oct 9.6 05:16:26 10° NE 05:19:14 20° E 05:22:01 10° SE visible
30 Oct 7.5 17:27:29 10° S 17:30:53 52° W 17:34:22 10° NNW visible
31 Oct 10.5 04:52:46 10° ENE 04:53:40 11° E 04:54:34 10° ESE visible
01 Nov 7.2 05:58:28 10° NNE 06:02:09 62° E 06:05:50 10° S visible
01 Nov 9.9 18:11:32 10° SW 18:13:50 17° W 18:16:11 10° NW visible
